Wetterdaten: aktuell Dienstag, 26.10.2021 02:11
Datum Zeit Temperatur Luftfeuchte Luftdruck Regen Wind Richtung Richtung Sonnenschein ET UV Solar Taupunkt Windchill Windböen Empfang
26.10.2021 02:11 2,1 °C 82 % 1022,7 hPa 0,0 l/m² 0,0 km/h (0 Bft) O-NO 75 ° 0 min 0,000 mm 0,0 UV-I 0 W/m² -0,6 °C 2,1 °C 0,0 km/h (0 Bft) 100 %
26.10.2021 02:00 2,3 °C 83 % 1022,7 hPa 0,0 l/m² 0,1 km/h (0 Bft) O-NO 75 ° 0 min 0,000 mm 0,0 UV-I 0 W/m² -0,3 °C 2,3 °C 3,2 km/h (1 Bft) 100 %
26.10.2021 01:50 2,4 °C 83 % 1022,6 hPa 0,0 l/m² 0,0 km/h (0 Bft) O-NO 75 ° 0 min 0,000 mm 0,0 UV-I 0 W/m² -0,2 °C 2,4 °C 1,6 km/h (1 Bft) 100 %
26.10.2021 01:40 2,5 °C 83 % 1022,5 hPa 0,0 l/m² 0,0 km/h (0 Bft) O-NO 75 ° 0 min 0,000 mm 0,0 UV-I 0 W/m² -0,1 °C 2,5 °C 1,6 km/h (1 Bft) 100 %
26.10.2021 01:30 2,5 °C 83 % 1022,5 hPa 0,0 l/m² 0,0 km/h (0 Bft) O-NO 75 ° 0 min 0,000 mm 0,0 UV-I 0 W/m² -0,1 °C 2,5 °C 1,6 km/h (1 Bft) 100 %
26.10.2021 01:20 2,6 °C 82 % 1022,5 hPa 0,0 l/m² 0,0 km/h (0 Bft) O-NO 75 ° 0 min 0,000 mm 0,0 UV-I 0 W/m² -0,2 °C 2,6 °C 0,0 km/h (0 Bft) 100 %
26.10.2021 01:10 2,7 °C 81 % 1022,3 hPa 0,0 l/m² 0,0 km/h (0 Bft) O-NO 75 ° 0 min 0,000 mm 0,0 UV-I 0 W/m² -0,2 °C 2,7 °C 0,0 km/h (0 Bft) 100 %
26.10.2021 01:00 2,8 °C 81 % 1022,2 hPa 0,0 l/m² 0,0 km/h (0 Bft) O-NO 75 ° 0 min 0,000 mm 0,0 UV-I 0 W/m² -0,1 °C 2,8 °C 1,6 km/h (1 Bft) 100 %
26.10.2021 00:50 3,0 °C 80 % 1022,3 hPa 0,0 l/m² 0,0 km/h (0 Bft) O-NO 75 ° 0 min 0,000 mm 0,0 UV-I 0 W/m² -0,1 °C 3,0 °C 1,6 km/h (1 Bft) 99 %
26.10.2021 00:42 3,1 °C 80 % 1022,3 hPa 0,0 l/m² 0,0 km/h (0 Bft) O-NO 75 ° 0 min 0,000 mm 0,0 UV-I 0 W/m² -0,0 °C 3,1 °C 0,0 km/h (0 Bft) 100 %
26.10.2021 00:30 3,3 °C 79 % 1022,3 hPa 0,0 l/m² 0,1 km/h (0 Bft) O-NO 75 ° 0 min 0,000 mm 0,0 UV-I 0 W/m² 0,0 °C 3,3 °C 1,6 km/h (1 Bft) 100 %
26.10.2021 00:21 3,4 °C 79 % 1022,2 hPa 0,0 l/m² 0,1 km/h (0 Bft) O-NO 75 ° 0 min 0,000 mm 0,0 UV-I 0 W/m² 0,1 °C 3,4 °C 3,2 km/h (1 Bft) 100 %
26.10.2021 00:10 3,4 °C 79 % 1022,2 hPa 0,0 l/m² 0,4 km/h (0 Bft) O-NO 75 ° 0 min 0,000 mm 0,0 UV-I 0 W/m² 0,1 °C 3,4 °C 3,2 km/h (1 Bft) 99 %
26.10.2021 00:00 3,4 °C 78 % 1022,2 hPa 0,0 l/m² 0,9 km/h (0 Bft) O-NO 75 ° 0 min 0,000 mm 0,0 UV-I 0 W/m² -0,1 °C 3,4 °C 4,8 km/h (1 Bft) 97 %
25.10.2021 23:50 3,6 °C 77 % 1022,1 hPa 0,0 l/m² 0,0 km/h (0 Bft) O-NO 75 ° 0 min 0,000 mm 0,0 UV-I 0 W/m² -0,0 °C 3,6 °C 0,0 km/h (0 Bft) 97 %
25.10.2021 23:40 3,7 °C 76 % 1022,2 hPa 0,0 l/m² 0,0 km/h (0 Bft) O-NO 75 ° 0 min 0,000 mm 0,0 UV-I 0 W/m² -0,1 °C 3,7 °C 1,6 km/h (1 Bft) 97 %
25.10.2021 23:30 3,9 °C 74 % 1022,3 hPa 0,0 l/m² 0,0 km/h (0 Bft) O-NO 75 ° 0 min 0,000 mm 0,0 UV-I 0 W/m² -0,3 °C 3,9 °C 0,0 km/h (0 Bft) 98 %
25.10.2021 23:20 4,3 °C 73 % 1022,3 hPa 0,0 l/m² 0,0 km/h (0 Bft) O-NO 75 ° 0 min 0,000 mm 0,0 UV-I 0 W/m² -0,1 °C 4,3 °C 0,0 km/h (0 Bft) 97 %
25.10.2021 23:10 4,6 °C 73 % 1022,2 hPa 0,0 l/m² 0,0 km/h (0 Bft) O-NO 75 ° 0 min 0,000 mm 0,0 UV-I 0 W/m² 0,2 °C 4,6 °C 1,6 km/h (1 Bft) 98 %
25.10.2021 23:00 4,9 °C 71 % 1022,1 hPa 0,0 l/m² 0,0 km/h (0 Bft) O-NO 75 ° 0 min 0,025 mm 0,0 UV-I 0 W/m² 0,1 °C 4,9 °C 0,0 km/h (0 Bft) 97 %
25.10.2021 22:53 5,2 °C 70 % 1022,1 hPa 0,0 l/m² 0,0 km/h (0 Bft) O-NO 75 ° 0 min 0,000 mm 0,0 UV-I 0 W/m² 0,2 °C 5,2 °C 0,0 km/h (0 Bft) 100 %
25.10.2021 22:40 5,7 °C 69 % 1022,0 hPa 0,0 l/m² 0,0 km/h (0 Bft) O-NO 75 ° 0 min 0,000 mm 0,0 UV-I 0 W/m² 0,5 °C 5,7 °C 1,6 km/h (1 Bft) 99 %
25.10.2021 22:32 6,0 °C 68 % 1022,0 hPa 0,0 l/m² 0,0 km/h (0 Bft) O-NO 75 ° 0 min 0,000 mm 0,0 UV-I 0 W/m² 0,6 °C 6,0 °C 1,6 km/h (1 Bft) 100 %
25.10.2021 22:20 6,3 °C 67 % 1021,9 hPa 0,0 l/m² 0,0 km/h (0 Bft) O-NO 75 ° 0 min 0,000 mm 0,0 UV-I 0 W/m² 0,6 °C 6,3 °C 0,0 km/h (0 Bft) 99 %
25.10.2021 22:11 6,6 °C 67 % 1021,9 hPa 0,0 l/m² 0,0 km/h (0 Bft) O-NO 75 ° 0 min 0,000 mm 0,0 UV-I 0 W/m² 0,9 °C 6,6 °C 0,0 km/h (0 Bft) 100 %
25.10.2021 22:00 6,7 °C 66 % 1021,9 hPa 0,0 l/m² 0,0 km/h (0 Bft) O-NO 75 ° 0 min 0,026 mm 0,0 UV-I 0 W/m² 0,8 °C 6,7 °C 0,0 km/h (0 Bft) 100 %
25.10.2021 21:50 6,9 °C 66 % 1021,9 hPa 0,0 l/m² 0,0 km/h (0 Bft) O-NO 75 ° 0 min 0,000 mm 0,0 UV-I 0 W/m² 1,0 °C 6,9 °C 0,0 km/h (0 Bft) 99 %
25.10.2021 21:40 7,0 °C 66 % 1021,8 hPa 0,0 l/m² 0,0 km/h (0 Bft) O-NO 75 ° 0 min 0,000 mm 0,0 UV-I 0 W/m² 1,1 °C 7,0 °C 0,0 km/h (0 Bft) 100 %
25.10.2021 21:30 7,1 °C 66 % 1021,7 hPa 0,0 l/m² 0,0 km/h (0 Bft) O-NO 75 ° 0 min 0,000 mm 0,0 UV-I 0 W/m² 1,2 °C 7,1 °C 0,0 km/h (0 Bft) 100 %
25.10.2021 21:20 7,3 °C 66 % 1021,7 hPa 0,0 l/m² 0,1 km/h (0 Bft) O-NO 75 ° 0 min 0,000 mm 0,0 UV-I 0 W/m² 1,4 °C 7,3 °C 3,2 km/h (1 Bft) 100 %
25.10.2021 21:10 7,4 °C 65 % 1021,7 hPa 0,0 l/m² 0,0 km/h (0 Bft) O-NO 75 ° 0 min 0,000 mm 0,0 UV-I 0 W/m² 1,3 °C 7,4 °C 0,0 km/h (0 Bft) 100 %
25.10.2021 21:00 7,6 °C 65 % 1021,8 hPa 0,0 l/m² 0,0 km/h (0 Bft) O-NO 75 ° 0 min 0,025 mm 0,0 UV-I 0 W/m² 1,5 °C 7,6 °C 1,6 km/h (1 Bft) 100 %
25.10.2021 20:53 7,7 °C 65 % 1021,9 hPa 0,0 l/m² 0,0 km/h (0 Bft) O-NO 75 ° 0 min 0,000 mm 0,0 UV-I 0 W/m² 1,5 °C 7,7 °C 1,6 km/h (1 Bft) 100 %
25.10.2021 20:40 7,8 °C 64 % 1021,9 hPa 0,0 l/m² 0,0 km/h (0 Bft) O-NO 75 ° 0 min 0,000 mm 0,0 UV-I 0 W/m² 1,4 °C 7,8 °C 1,6 km/h (1 Bft) 100 %
25.10.2021 20:32 7,9 °C 64 % 1021,9 hPa 0,0 l/m² 0,1 km/h (0 Bft) O-NO 75 ° 0 min 0,000 mm 0,0 UV-I 0 W/m² 1,5 °C 7,9 °C 3,2 km/h (1 Bft) 100 %
25.10.2021 20:20 8,1 °C 64 % 1021,9 hPa 0,0 l/m² 0,0 km/h (0 Bft) O-NO 75 ° 0 min 0,000 mm 0,0 UV-I 0 W/m² 1,7 °C 8,1 °C 1,6 km/h (1 Bft) 99 %
25.10.2021 20:11 8,2 °C 63 % 1021,9 hPa 0,0 l/m² 0,1 km/h (0 Bft) O-NO 75 ° 0 min 0,000 mm 0,0 UV-I 0 W/m² 1,6 °C 8,2 °C 3,2 km/h (1 Bft) 98 %
25.10.2021 20:00 8,4 °C 63 % 1022,0 hPa 0,0 l/m² 0,2 km/h (0 Bft) O-NO 75 ° 0 min 0,025 mm 0,0 UV-I 0 W/m² 1,8 °C 8,4 °C 4,8 km/h (1 Bft) 98 %
25.10.2021 19:50 8,5 °C 62 % 1022,0 hPa 0,0 l/m² 0,1 km/h (0 Bft) O-NO 75 ° 0 min 0,000 mm 0,0 UV-I 0 W/m² 1,6 °C 8,5 °C 3,2 km/h (1 Bft) 97 %
25.10.2021 19:40 8,6 °C 62 % 1022,1 hPa 0,0 l/m² 0,2 km/h (0 Bft) O-NO 75 ° 0 min 0,000 mm 0,0 UV-I 0 W/m² 1,7 °C 8,6 °C 3,2 km/h (1 Bft) 97 %
25.10.2021 19:30 8,7 °C 62 % 1022,1 hPa 0,0 l/m² 0,1 km/h (0 Bft) O-NO 75 ° 0 min 0,000 mm 0,0 UV-I 0 W/m² 1,8 °C 8,7 °C 1,6 km/h (1 Bft) 97 %
25.10.2021 19:20 8,8 °C 61 % 1022,0 hPa 0,0 l/m² 0,1 km/h (0 Bft) O-NO 75 ° 0 min 0,000 mm 0,0 UV-I 0 W/m² 1,7 °C 8,8 °C 1,6 km/h (1 Bft) 97 %
25.10.2021 19:10 8,9 °C 61 % 1021,9 hPa 0,0 l/m² 0,2 km/h (0 Bft) O-NO 75 ° 0 min 0,000 mm 0,0 UV-I 0 W/m² 1,8 °C 8,9 °C 1,6 km/h (1 Bft) 98 %
25.10.2021 19:00 9,2 °C 60 % 1021,9 hPa 0,0 l/m² 1,0 km/h (0 Bft) O-NO 75 ° 0 min 0,026 mm 0,0 UV-I 0 W/m² 1,8 °C 9,2 °C 4,8 km/h (1 Bft) 97 %
25.10.2021 18:53 9,3 °C 59 % 1021,8 hPa 0,0 l/m² 1,2 km/h (1 Bft) O-NO 75 ° 0 min 0,000 mm 0,0 UV-I 0 W/m² 1,7 °C 9,3 °C 8,0 km/h (2 Bft) 98 %
25.10.2021 18:40 9,5 °C 59 % 1021,8 hPa 0,0 l/m² 0,7 km/h (0 Bft) O-NO 76 ° 0 min 0,000 mm 0,0 UV-I 0 W/m² 1,9 °C 9,5 °C 4,8 km/h (1 Bft) 98 %
25.10.2021 18:32 9,7 °C 58 % 1021,8 hPa 0,0 l/m² 1,0 km/h (0 Bft) O-NO 76 ° 0 min 0,000 mm 0,0 UV-I 0 W/m² 1,8 °C 9,7 °C 4,8 km/h (1 Bft) 100 %
25.10.2021 18:20 9,9 °C 57 % 1021,9 hPa 0,0 l/m² 0,3 km/h (0 Bft) O-NO 76 ° 0 min 0,000 mm 0,0 UV-I 0 W/m² 1,8 °C 9,9 °C 3,2 km/h (1 Bft) 100 %
25.10.2021 18:11 10,3 °C 56 % 1021,9 hPa 0,0 l/m² 0,5 km/h (0 Bft) O-NO 76 ° 0 min 0,000 mm 0,0 UV-I 0 W/m² 1,9 °C 10,3 °C 3,2 km/h (1 Bft) 100 %
25.10.2021 18:00 10,7 °C 55 % 1021,8 hPa 0,0 l/m² 0,4 km/h (0 Bft) O-NO 76 ° 0 min 0,025 mm 0,0 UV-I 0 W/m² 2,0 °C 10,7 °C 4,8 km/h (1 Bft) 100 %
25.10.2021 17:50 11,1 °C 54 % 1021,9 hPa 0,0 l/m² 0,5 km/h (0 Bft) O-NO 76 ° 0 min 0,000 mm 0,0 UV-I 2 W/m² 2,2 °C 11,1 °C 6,4 km/h (2 Bft) 100 %
25.10.2021 17:40 11,4 °C 53 % 1022,0 hPa 0,0 l/m² 0,7 km/h (0 Bft) O-NO 76 ° 0 min 0,000 mm 0,0 UV-I 10 W/m² 2,2 °C 11,4 °C 6,4 km/h (2 Bft) 100 %
25.10.2021 17:30 11,8 °C 51 % 1021,9 hPa 0,0 l/m² 1,5 km/h (1 Bft) O-NO 76 ° 0 min 0,000 mm 0,0 UV-I 20 W/m² 2,0 °C 11,8 °C 6,4 km/h (2 Bft) 100 %
25.10.2021 17:20 12,1 °C 51 % 1022,0 hPa 0,0 l/m² 3,7 km/h (1 Bft) O-NO 76 ° 0 min 0,000 mm 0,0 UV-I 31 W/m² 2,3 °C 12,1 °C 9,7 km/h (2 Bft) 100 %
25.10.2021 17:10 12,4 °C 49 % 1022,0 hPa 0,0 l/m² 6,0 km/h (2 Bft) O-NO 76 ° 0 min 0,076 mm 0,0 UV-I 40 W/m² 2,0 °C 12,4 °C 12,9 km/h (3 Bft) 100 %
25.10.2021 17:00 12,8 °C 49 % 1022,0 hPa 0,0 l/m² 5,6 km/h (1 Bft) O-NO 78 ° 0 min 0,000 mm 0,0 UV-I 50 W/m² 2,4 °C 12,8 °C 9,7 km/h (2 Bft) 99 %
25.10.2021 16:50 13,2 °C 48 % 1022,2 hPa 0,0 l/m² 5,0 km/h (1 Bft) O-NO 69 ° 0 min 0,000 mm 0,0 UV-I 59 W/m² 2,4 °C 13,2 °C 11,3 km/h (2 Bft) 100 %
25.10.2021 16:40 13,5 °C 47 % 1022,2 hPa 0,0 l/m² 5,8 km/h (2 Bft) O 88 ° 0 min 0,000 mm 0,0 UV-I 66 W/m² 2,4 °C 13,5 °C 12,9 km/h (3 Bft) 97 %
25.10.2021 16:32 13,8 °C 46 % 1022,2 hPa 0,0 l/m² 3,8 km/h (1 Bft) O-NO 73 ° 0 min 0,000 mm 0,0 UV-I 72 W/m² 2,4 °C 13,8 °C 9,7 km/h (2 Bft) 98 %
25.10.2021 16:20 14,0 °C 43 % 1022,2 hPa 0,0 l/m² 5,2 km/h (1 Bft) O 92 ° 0 min 0,000 mm 0,0 UV-I 80 W/m² 1,6 °C 14,0 °C 14,5 km/h (3 Bft) 97 %
25.10.2021 16:11 14,3 °C 42 % 1022,4 hPa 0,0 l/m² 5,5 km/h (1 Bft) O-NO 72 ° 11 min 0,178 mm 0,5 UV-I 112 W/m² 1,6 °C 14,3 °C 12,9 km/h (3 Bft) 99 %
25.10.2021 16:00 14,6 °C 41 % 1022,4 hPa 0,0 l/m² 6,8 km/h (2 Bft) O 84 ° 10 min 0,000 mm 0,6 UV-I 154 W/m² 1,5 °C 14,6 °C 12,9 km/h (3 Bft) 100 %
25.10.2021 15:50 14,8 °C 40 % 1022,5 hPa 0,0 l/m² 5,7 km/h (1 Bft) O-NO 69 ° 10 min 0,000 mm 0,6 UV-I 190 W/m² 1,3 °C 14,8 °C 12,9 km/h (3 Bft) 100 %
25.10.2021 15:40 15,1 °C 40 % 1022,5 hPa 0,0 l/m² 4,4 km/h (1 Bft) O-NO 74 ° 10 min 0,000 mm 0,7 UV-I 212 W/m² 1,6 °C 15,1 °C 12,9 km/h (3 Bft) 100 %
25.10.2021 15:30 15,2 °C 40 % 1022,5 hPa 0,0 l/m² 6,1 km/h (2 Bft) O 92 ° 10 min 0,000 mm 0,8 UV-I 252 W/m² 1,7 °C 15,2 °C 14,5 km/h (3 Bft) 100 %
25.10.2021 15:20 15,4 °C 39 % 1022,6 hPa 0,0 l/m² 7,1 km/h (2 Bft) O-NO 78 ° 10 min 0,000 mm 0,9 UV-I 283 W/m² 1,5 °C 15,4 °C 17,7 km/h (3 Bft) 100 %
25.10.2021 15:10 15,5 °C 40 % 1022,5 hPa 0,0 l/m² 4,1 km/h (1 Bft) O 79 ° 10 min 0,000 mm 1,0 UV-I 338 W/m² 2,0 °C 15,5 °C 11,3 km/h (2 Bft) 98 %
25.10.2021 15:00 15,4 °C 40 % 1022,7 hPa 0,0 l/m² 4,3 km/h (1 Bft) O-NO 73 ° 10 min 0,229 mm 1,1 UV-I 328 W/m² 1,9 °C 15,4 °C 11,3 km/h (2 Bft) 97 %
25.10.2021 14:50 15,4 °C 41 % 1022,7 hPa 0,0 l/m² 4,7 km/h (1 Bft) O 86 ° 10 min 0,000 mm 1,2 UV-I 352 W/m² 2,2 °C 15,4 °C 12,9 km/h (3 Bft) 98 %
_ Min-Zeit 07:40 15:20 21:10 - 03:00 - - - - - - 07:40 07:40 03:00 13:50
Minimum _ 0,4 °C 39 % 1021,7 hPa - 0,0 km/h (0 Bft) - - - - - - -1,2 °C 0,4 °C 0,0 km/h (0 Bft) 96 %
_ Max-Zeit 14:30 09:40 03:00 03:00 15:20 - - 10:31 13:10 12:40 12:40 12:20 14:20 15:20 03:20
Maximum _ 15,8 °C 93 % 1026,1 hPa 0,0 l/m² 7,1 km/h
O-NO (2 Bft)
- - 11 min 0,254 mm 1,9 UV-I 486 W/m² 4,0 °C 15,7 °C 17,7 km/h
O-NO (3 Bft)
100 %
Durchschnitt _ 6,5 °C 70 % 1023,8 hPa #0,0 l/m² 1,1 km/h (1 Bft) O-NO - #0 min. #0,000 mm 0,0 UV-I 0 W/m² 1,0 °C 6,5 °C 3,9 km/h (1 Bft) 99 %